Regional Weather Roundup
Issued by NWS Sterling, VA

Home | Current Version | Previous Version | Graphics & Text | Print | Product List | Glossary On
Versions: 1 2 3 4 5 6 7 8 9 10 11 12 13 14 15 16 17 18 19 20 21 22 23 24 25 26 27 28 29 30 31 32 33 34 35 36 37 38 39 40 41 42 43 44 45 46 47 48 49 50
000
ASUS41 KLWX 221706
RWRLWX

REGIONAL WEATHER ROUNDUP
NATIONAL WEATHER SERVICE BALTIMORE MD/WASHINGTON DC
100 PM EDT FRI MAY 22 2015

Note: "FAIR" indicates few or no clouds below 12,000 feet
with no significant weather and/or obstructions to visibility.
 TC=TEMPERATURE CELSIUS

 * =Non NWS site. Station does not report precipitation (e.g. rain,
    snow, etc.), thunder, or fog.

DCZ001-MDZ009-015-VAZ040>042-051-053>054-221800-
WASHINGTON METRO

CITY           SKY/WX    TMP DP  RH WIND       PRES   REMARKS
WASHINGTON NAT MOSUNNY   73  42  32 NW14G20   30.11F
DULLES         MOSUNNY   69  42  37 W10G22    30.11F
ANDREWS AFB    SUNNY     69  43  39 NW9G20    30.10S
FT BELVOIR     SUNNY     72  43  35 W13       30.11F
QUANTICO       SUNNY     70  41  34 W7        30.13S
LEESBURG*      SUNNY     70  46  43 W16G25    30.12F
MANASSAS*      SUNNY     70  43  37 NW13G23   30.13S
GAITHERSBURG*  SUNNY     66  45  45 W16       30.14F

$$

MDZ006>007-011-014-221800-
BALTIMORE METRO

CITY           SKY/WX    TMP DP  RH WIND       PRES   REMARKS
BWI AIRPORT    MOSUNNY   70  43  37 W14G22    30.08S
MD SCIENCE CTR   N/A     71  39  31 MISG      30.08S
MARTIN STATE   MOSUNNY   73  45  35 W12G20    30.08S
ANNAPOLIS      SUNNY     69  42  37 NW10      30.08F

$$

MDZ012-015-019>023-221800-
MARYLAND EASTERN SHORE

CITY           SKY/WX    TMP DP  RH WIND       PRES   REMARKS
OCEAN CITY       N/A     71  45  39 NW15      30.07S
SALISBURY      SUNNY     69  45  41 NW13G24   30.08S
EASTON*        SUNNY     70  48  46 NW14G20   30.13S

$$

MDZ017>025-221800-
SOUTHERN MARYLAND

CITY           SKY/WX    TMP DP  RH WIND       PRES   REMARKS
PATUXENT RIVER MOSUNNY   71  45  39 NW13      30.11S
ST INIGOES     SUNNY     69  48  47 W14       30.11S
LEONARDTOWN*   NOT AVBL

$$

MDZ003>005-221800-
NORTH CENTRAL MARYLAND

CITY           SKY/WX    TMP DP  RH WIND       PRES   REMARKS
FREDERICK*     SUNNY     70  46  43 NW14G28   30.13R
HAGERSTOWN APT MOSUNNY   70  40  33 SW14G25   30.08F
WESTMINSTER*   NOT AVBL

$$

MDZ501>502-221800-
WESTERN MARYLAND

CITY           SKY/WX    TMP DP  RH WIND       PRES   REMARKS
OAKLAND*       NOT AVBL
CUMBERLAND*    NOT AVBL

$$

VAZ025>031-221800-
SHENANDOAH VALLEY

CITY           SKY/WX    TMP DP  RH WIND       PRES   REMARKS
WINCHESTER*    SUNNY     70  32  24 NW10G26   30.12F
FRONT ROYAL*   FAIR      68  43  40 W10G20    30.12F
LURAY*         FAIR      70  41  35 W5        30.14F
NEW MARKET*    FAIR      67  41  37 NW6       30.14S
STAUNTON*      PTSUNNY   67  40  36 NE5       30.18S
WAYNESBORO*    FAIR      64  41  42 CALM      30.17S

$$

WVZ021-048>050-054>055-221800-
EASTERN WEST VIRGINIA PANHANDLE

CITY           SKY/WX    TMP DP  RH WIND       PRES   REMARKS
MARTINSBURG    SUNNY     70  42  36 W22G29    30.11F
PETERSBURG*    SUNNY     67  40  36 SW3G16    30.16F

$$

VAZ036>039-050-221800-
CENTRAL FOOTHILLS

CITY           SKY/WX    TMP DP  RH WIND       PRES   REMARKS
CHARLOTTESVILL SUNNY     68  42  38 VRB7      30.15F
CULPEPER*      SUNNY     69  44  40 W8        30.14F
ORANGE*        SUNNY     70  43  37 S6G17     30.16S
GORDONSVILLE*  FAIR      67  42  40 NW6       30.14F
WARRENTON*     FAIR      72  47  41 W9G18     30.13F

$$

VAZ055>057-221800-
NORTH AND CENTRAL PIEDMONT

CITY           SKY/WX    TMP DP  RH WIND       PRES   REMARKS
FREDERICKSBRG* SUNNY     71  44  37 CALM      30.13S
STAFFORD*      SUNNY     69  40  34 NW9       30.18S

$$

NCZ024-NYZ072-PAZ021-071-VAZ022-071-221800-
OTHER REGIONAL OBSERVATIONS

CITY           SKY/WX    TMP DP  RH WIND       PRES   REMARKS
NEW YORK CITY  MOSUNNY   71  39  31 VRB6      29.93F
PHILADELPHIA   MOSUNNY   73  39  29 W22       30.00F
PITTSBURGH     PTSUNNY   64  44  48 W16       30.12S
ROANOKE        SUNNY     68  40  35 NW7G20    30.22F
RICHMOND       MOSUNNY   72  41  32 W9        30.15S
RALEIGH        MOSUNNY   69  45  41 NE7       30.20S

$$

ANZ530>537-221800-
MARINE OBSERVATIONS

STATION/POSITION TIME  TEMP    WIND        PRES
                       AIR SEA DIR/SP/G
                 (UTC) (F)     (DEG/KT/KT) (MB)
THOMAS PT LIGHT  1700   67 65  300/ 15/ 17 1019.3F
BALT KEY BRIDGE  1600   66     290/ 18/ 22 1017.9S
LEWISETTA        1600   64 68              1019.7R
SOLOMONS ISLAND  1600      68                N/A
PINEY POINT      1600          330/ 18/ 20   N/A

$$




USA.gov is the U.S. government's official web portal to all federal, state and local government web resources and services.